Saint Simons Island, GA

10:51 AM EDT on April 19, 2018 (GMT -0400)
McKinnon

Weather History for KSSI - November, 2013

Change the Weather History Date:

Friday, November 15, 2013

  Actual Average Record
Temperature  
Mean Temperature 61 °F 62 °F  
Max Temperature 65 °F 71 °F 80 °F (1957)
Min Temperature 57 °F 53 °F 29 °F (1969)
Degree Days  
Heating Degree Days 4 5  
Month to date heating degree days 65 54  
Since 1 July heating degree days 87 84  
Cooling Degree Days 0 2  
Month to date cooling degree days 21 35  
Year to date cooling degree days 2563 2596  
Growing Degree Days 10 (Base 50)    
Moisture  
Dew Point 60 °F    
Average Humidity 95    
Maximum Humidity 100    
Minimum Humidity 90    
Precipitation  
Precipitation 0.09 in 0.06 in 0.16 in (1951)
Month to date precipitation 1.80 1.10  
Year to date precipitation 48.80 41.43  
Snow  
Snow 0.00 in - 0.00 in ()
Month to date snowfall 0.0  
Since 1 July snowfall 0.0  
Since 1 September snowfall 0.0  
Snow Depth 0.00 in    
Sea Level Pressure  
Sea Level Pressure 30.21 in    
Wind  
Wind Speed 6 mph (NNE)    
Max Wind Speed 14 mph    
Max Gust Speed 18 mph    
Visibility 9 miles    
Events Rain    
T = Trace of Precipitation, MM = Missing Value Source: NWS Daily Summary

Daily Weather History Graph

Daily Weather History Graph

Search for Another Location

Airport or City:

Astronomy

Nov. 15, 2013 Rise Set
Actual Time 6:52 AM EST 5:27 PM EST
Civil Twilight 6:27 AM EST 5:52 PM EST
Nautical Twilight 5:57 AM EST 6:22 PM EST
Astronomical Twilight 5:29 AM EST 6:50 PM EST
Moon 4:17 PM EST (11/15) 4:54 AM EST (11/15)
Length of Visible Light 11h 25m
Length of Day
10h 34m
Waxing Gibbous, 96% of the Moon is Illuminated
Nov 15
Waxing Gibbous
Nov 17
Full
Nov 25
Last Quarter
Dec 2
New
Dec 9
First Quarter

Hourly Weather History & Observations

Time (EST) Temp. Dew Point Humidity Pressure Visibility Wind Dir Wind Speed Gust Speed Precip Events Conditions
12:48 AM 57.2 °F 55.4 °F 94% 30.25 in 10.0 mi North 5.8 mph - N/A   Partly Cloudy
12:53 AM 57.0 °F 55.0 °F 93% 30.25 in 10.0 mi North 5.8 mph - N/A   Partly Cloudy
1:53 AM 59.0 °F 57.0 °F 93% 30.25 in 10.0 mi North 9.2 mph - N/A   Partly Cloudy
2:53 AM 59.0 °F 57.0 °F 93% 30.24 in 10.0 mi North 6.9 mph - N/A   Clear
3:53 AM 59.0 °F 57.0 °F 93% 30.23 in 10.0 mi NNE 11.5 mph - N/A   Mostly Cloudy
4:53 AM 59.0 °F 57.0 °F 93% 30.22 in 10.0 mi NNE 10.4 mph - N/A   Mostly Cloudy
5:53 AM 59.0 °F 57.0 °F 93% 30.23 in 10.0 mi North 6.9 mph - N/A   Mostly Cloudy
6:53 AM 60.1 °F 57.9 °F 93% 30.23 in 10.0 mi North 11.5 mph - N/A   Overcast
7:53 AM 61.0 °F 59.0 °F 93% 30.27 in 8.0 mi North 5.8 mph - 0.00 in Rain Light Rain
8:53 AM 59.0 °F 57.0 °F 93% 30.27 in 10.0 mi North 5.8 mph - 0.00 in   Mostly Cloudy
9:21 AM 60.8 °F 57.2 °F 88% 30.28 in 10.0 mi WNW 4.6 mph - N/A   Overcast
9:53 AM 60.1 °F 57.9 °F 93% 30.27 in 10.0 mi North 6.9 mph - N/A   Mostly Cloudy
10:53 AM 62.1 °F 59.0 °F 90% 30.27 in 10.0 mi Calm Calm - 0.00 in   Overcast
11:53 AM 62.1 °F 60.1 °F 93% 30.25 in 7.0 mi North 4.6 mph - 0.00 in Rain Light Rain
12:01 PM 62.6 °F 60.8 °F 94% 30.25 in 3.0 mi Calm Calm - 0.02 in Rain Light Rain
12:08 PM 62.6 °F 60.8 °F 94% 30.25 in 4.0 mi North 3.5 mph - 0.02 in Rain Light Rain
12:28 PM 62.6 °F 60.8 °F 94% 30.23 in 8.0 mi NNE 6.9 mph - 0.02 in   Overcast
12:53 PM 62.1 °F 61.0 °F 96% 30.20 in 9.0 mi NE 10.4 mph - 0.02 in Rain Light Rain
1:53 PM 62.1 °F 61.0 °F 96% 30.18 in 10.0 mi ENE 9.2 mph - 0.02 in Rain Light Rain
2:53 PM 62.1 °F 61.0 °F 96% 30.14 in 10.0 mi ENE 6.9 mph - 0.00 in Rain Light Rain
3:53 PM 63.0 °F 62.1 °F 97% 30.16 in 10.0 mi East 4.6 mph - 0.02 in Rain Light Rain
4:53 PM 64.0 °F 62.1 °F 93% 30.12 in 10.0 mi ESE 8.1 mph - 0.02 in Rain Light Rain
5:53 PM 64.9 °F 64.0 °F 97% 30.15 in 10.0 mi ESE 4.6 mph - 0.00 in   Overcast
6:53 PM 64.9 °F 62.1 °F 90% 30.15 in 10.0 mi Calm Calm - N/A   Overcast
7:53 PM 63.0 °F 62.1 °F 97% 30.14 in 10.0 mi ESE 3.5 mph - N/A   Mostly Cloudy
8:53 PM 64.0 °F 63.0 °F 96% 30.15 in 10.0 mi Calm Calm - N/A   Overcast
9:53 PM 63.0 °F 62.1 °F 97% 30.17 in 10.0 mi Calm Calm - N/A   Overcast
10:53 PM 63.0 °F 62.1 °F 97% 30.17 in 10.0 mi Calm Calm - 0.01 in   Overcast
11:53 PM 62.1 °F 61.0 °F 96% 30.16 in 10.0 mi North 4.6 mph - N/A   Overcast